Regional Weather Roundup
Issued by NWS

Home | Current Version | Previous Version | Text Only | Print | Product List | Glossary Off
Versions: 1 2 3 4 5 6 7 8 9 10 11 12 13 14 15 16 17 18 19 20 21 22 23 24 25 26 27 28 29 30 31 32 33 34 35 36 37 38 39 40 41 42 43 44 45 46 47 48 49 50

000
ASUS43 KIND 281759
RWRIN

WEATHER ROUNDUP FOR INDIANA
NATIONAL WEATHER SERVICE INDIANAPOLIS IN
100 PM EST FRI NOV 28 2014

NOTE: "FAIR" INDICATES FEW OR NO CLOUDS BELOW 12,000 FEET WITH NO
SIGNIFICANT WEATHER AND/OR OBSTRUCTIONS TO VISIBILITY.

* - STATION DOES NOT REPORT WEATHER SUCH AS PRECIPITATION OR FOG.

+ - STATION NOT QUALITY CONTROLLED BY THE NATIONAL WEATHER SERVICE.
    USE DATA WITH CAUTION...ESPECIALLY DEWPOINT AND RELATIVE
    HUMIDITY OBSERVATIONS.

INZ001>003-010>013-019-020-281900-
NORTHWEST INDIANA

CITY           SKY/WX    TMP DP  RH WIND       PRES   REMARKS
VALPARAISO     NOT AVBL

$$

LMZ046-743>745-281900-
SOUTHERN LAKE MICHIGAN

STATION/POSITION TIME  TEMP WIND        PRES
                       AIR  DIR/SP/G
                 (UTC) (F)  (DEG/KT/KT) (MB)
MICHIGAN CITY    1700   25  140/ 11/ 15   N/A

$$

INZ004-005-014>016-021>024-281900-
NORTH CENTRAL INDIANA

CITY           SKY/WX    TMP DP  RH WIND       PRES   REMARKS
GOSHEN         CLOUDY    25  17  72 S10       30.20F WCI  15
6HR MIN TEMP:  20; 6HR MAX TEMP:  25; 6HR PCP: TRACE;

SOUTH BEND     CLOUDY    26  17  68 S10       30.20F WCI  16
6HR MIN TEMP:  20; 6HR MAX TEMP:  26; 6HR PCP:  0.01;


$$

INZ006>009-017-018-025>027-281900-
NORTHEAST INDIANA

CITY           SKY/WX    TMP DP  RH WIND       PRES   REMARKS
ANGOLA *+      CLOUDY    21  19  93 SW10      30.22F VSB 3/4 WCI  10
FORT WAYNE     CLOUDY    27  18  69 S13       30.25F WCI  16
6HR MIN TEMP:  21; 6HR MAX TEMP:  28; 6HR PCP: TRACE;


$$

INZ028-029-035-036-043>045-051>053-281900-
WEST CENTRAL INDIANA

CITY           SKY/WX    TMP DP  RH WIND       PRES   REMARKS
GREENCASTLE +  PTSUNNY   30  21  69 S12       30.22F WCI  21
LAFAYETTE      SUNNY     29  18  63 S12       30.20F WCI  19
6HR MIN TEMP:  20; 6HR MAX TEMP:  29;

TERRE HAUTE    PTSUNNY   34  25  69 S15G21    30.22F WCI  24
6HR MIN TEMP:  22; 6HR MAX TEMP:  34;


$$

INZ030>032-037>040-046>048-054>057-064-065-281900-
CENTRAL INDIANA

CITY           SKY/WX    TMP DP  RH WIND       PRES   REMARKS
ANDERSON       SUNNY     28  16  59 S17G23    30.25F WCI  16
COLUMBUS       PTSUNNY   30  19  64 S12       30.28F WCI  21
INDIANAPOLIS   PTSUNNY   29  15  56 SE8       30.23F WCI  21
6HR MIN TEMP:  21; 6HR MAX TEMP:  30;

-EAGLE CREEK   PTSUNNY   28  14  55 S7        30.22F WCI  21
6HR MIN TEMP:  21; 6HR MAX TEMP:  28;

KOKOMO *+      MOSUNNY   28  18  64 S10       30.23F WCI  19
MT COMFORT *+  PTSUNNY   30   9  40 S9        30.24F WCI  22
SHELBYVILLE    PTSUNNY   31  18  58 S14       30.25F WCI  21
6HR MIN TEMP:  25; 6HR MAX TEMP:  31;


$$

INZ033-034-041-042-049-050-058-059-281900-
EAST CENTRAL INDIANA

CITY           SKY/WX    TMP DP  RH WIND       PRES   REMARKS
MUNCIE         PTSUNNY   29  18  63 S10       30.23F WCI  20
6HR MIN TEMP:  22; 6HR MAX TEMP:  29;


$$

INZ060-061-067>069-081>083-085>088-281900-
SOUTHWEST INDIANA

CITY           SKY/WX    TMP DP  RH WIND       PRES   REMARKS
EVANSVILLE     SUNNY     39  28  64 SE9       30.28F
6HR MIN TEMP:  27; 6HR MAX TEMP:  39;

HUNTINGBURG *+ SUNNY     36  25  64 S12       30.29F
6HR MIN TEMP:  25; 6HR MAX TEMP:  36;


$$

INZ062-063-066-070>080-084-089>092-281900-
SOUTH CENTRAL AND SOUTHEAST INDIANA

CITY           SKY/WX    TMP DP  RH WIND       PRES   REMARKS
BLOOMINGTON    CLOUDY    31  21  66 S10       30.24F WCI  22
6HR MIN TEMP:  21; 6HR MAX TEMP:  31;


$$



USA.gov is the U.S. government's official web portal to all federal, state and local government web resources and services.